User: anonymous   Login
Location: Unspecified
(0.0000°N, 0.0000°E)
Time: 09:02:44
(UTC+00:00)
Language:

S-NET D - Orbit

View from above orbital plane
View from above orbital plane
View from above satellite
View from above satellite

Ground track
Ground track

The orbit is defined by the following mean orbital elements,

1 43186U          26145.30264727 +.00000000 +00000-0 +23483-3 0 00007
2 43186  97.5380  50.2378 0010122  96.4894 263.7491 15.16417214    01
Epoch (UTC): 25 May 2026 07:15:48
Eccentricity: 0.0010122
inclination: 97.5380°
perigee height: 510 km
apogee height: 524 km
right ascension of ascending node: 50.2378°
argument of perigee: 96.4894°
revolutions per day: 15.16417214
mean anomaly at epoch: 263.7491°

The dashed part of the orbit path shows where the satellite is in the earth's shadow,  

DLR